RYR84KM EGGW-LEMI

Flight info

Callsign RYR84KM
Flight time 2h 15m
Altitude 33000
Route RODNI N27 ICTAM Q63 CPT N859 VAPID UN859 SOPIL DCT BALAN DCT LMG DCT PIMQO DCT AGN DCT ANETO DCT POSSY DCT XIMPE DCT RIMES N860 VLC L34 ALT
Aircraft B38M/M-SDE1FGHILORVWXY/HB1

Departure

Time 2026-04-23 10:32
Airport London Luton Airport (EGGW)

Arrival

Time 2026-04-23 12:48
Airport Region of Murcia International Airport (LEMI)
Time Latitude Longitude Altitude Speed Heading
2026-04-23 10:20 51.87859 -0.37892 526 ft 0 kts 46°
2026-04-23 10:26 51.87848 -0.37912 526 ft 4 kts 46°
2026-04-23 10:27 51.87832 -0.37939 526 ft 4 kts 58°
2026-04-23 10:27 51.87829 -0.37969 526 ft 4 kts 130°
2026-04-23 10:27 51.87850 -0.37992 526 ft 3 kts 152°
2026-04-23 10:27 51.87874 -0.38008 526 ft 4 kts 166°
2026-04-23 10:28 51.87880 -0.38010 526 ft 0 kts 166°
2026-04-23 10:29 51.87879 -0.38009 526 ft 1 kts 166°
2026-04-23 10:29 51.87857 -0.37997 526 ft 7 kts 156°
2026-04-23 10:29 51.87798 -0.37910 526 ft 16 kts 119°
2026-04-23 10:30 51.87764 -0.37792 526 ft 19 kts 115°
2026-04-23 10:30 51.87703 -0.37579 522 ft 22 kts 116°
2026-04-23 10:30 51.87595 -0.37462 525 ft 19 kts 172°
2026-04-23 10:30 51.87500 -0.37559 525 ft 16 kts 251°
2026-04-23 10:31 51.87471 -0.37738 525 ft 17 kts 256°
2026-04-23 10:31 51.87436 -0.37933 526 ft 19 kts 255°
2026-04-23 10:31 51.87355 -0.38080 525 ft 20 kts 205°
2026-04-23 10:31 51.87253 -0.38064 526 ft 13 kts 88°
2026-04-23 10:32 51.87329 -0.37627 523 ft 81 kts 75°
2026-04-23 10:32 51.87548 -0.36347 524 ft 154 kts 75°
2026-04-23 10:32 51.87879 -0.34413 849 ft 193 kts 76°
2026-04-23 10:32 51.88235 -0.32279 1983 ft 205 kts 76°
2026-04-23 10:33 51.88642 -0.30053 3212 ft 207 kts 76°
2026-04-23 10:33 51.88940 -0.27681 3982 ft 225 kts 95°
2026-04-23 10:33 51.88352 -0.25281 4663 ft 242 kts 130°
2026-04-23 10:33 51.86902 -0.23787 5524 ft 255 kts 162°
2026-04-23 10:34 51.85118 -0.23684 6558 ft 266 kts 191°
2026-04-23 10:34 51.83516 -0.25217 7507 ft 277 kts 225°
2026-04-23 10:34 51.82580 -0.27988 8406 ft 287 kts 249°
2026-04-23 10:34 51.81864 -0.31029 9277 ft 293 kts 245°
2026-04-23 10:35 51.81066 -0.34074 10216 ft 297 kts 244°
2026-04-23 10:35 51.80216 -0.37221 10768 ft 315 kts 244°
2026-04-23 10:35 51.79283 -0.40548 11154 ft 335 kts 244°
2026-04-23 10:35 51.78292 -0.44053 11637 ft 350 kts 244°
2026-04-23 10:36 51.77268 -0.47697 12241 ft 360 kts 244°
2026-04-23 10:36 51.76244 -0.51400 13022 ft 364 kts 245°
2026-04-23 10:36 51.75208 -0.55160 13808 ft 368 kts 245°
2026-04-23 10:36 51.74169 -0.58955 14539 ft 372 kts 245°
2026-04-23 10:37 51.73114 -0.62803 15166 ft 377 kts 245°
2026-04-23 10:37 51.72050 -0.66684 15818 ft 381 kts 245°
2026-04-23 10:37 51.70972 -0.70608 16475 ft 384 kts 246°
2026-04-23 10:37 51.69872 -0.74614 17127 ft 388 kts 246°
2026-04-23 10:38 51.68788 -0.78555 17728 ft 392 kts 246°
2026-04-23 10:38 51.67662 -0.82639 18349 ft 395 kts 246°
2026-04-23 10:38 51.66542 -0.86696 18923 ft 399 kts 246°
2026-04-23 10:38 51.65410 -0.90795 19460 ft 402 kts 246°
2026-04-23 10:39 51.64270 -0.94914 19992 ft 404 kts 246°
2026-04-23 10:39 51.63058 -0.99003 20516 ft 406 kts 238°
2026-04-23 10:39 51.61265 -1.02500 21106 ft 408 kts 225°
2026-04-23 10:39 51.59264 -1.05784 21496 ft 414 kts 226°
2026-04-23 10:40 51.57238 -1.09078 22059 ft 415 kts 226°
2026-04-23 10:40 51.55188 -1.12373 22545 ft 419 kts 226°
2026-04-23 10:40 51.53107 -1.15678 23034 ft 422 kts 224°
2026-04-23 10:40 51.50699 -1.18391 23520 ft 427 kts 206°
2026-04-23 10:41 51.47866 -1.19786 23992 ft 430 kts 187°
2026-04-23 10:41 51.44877 -1.19732 24352 ft 432 kts 169°
2026-04-23 10:41 51.42008 -1.18331 24736 ft 432 kts 153°
2026-04-23 10:41 51.39390 -1.15972 25092 ft 433 kts 143°
2026-04-23 10:42 51.36984 -1.13049 25453 ft 436 kts 143°
2026-04-23 10:42 51.34260 -1.10860 25856 ft 441 kts 158°
2026-04-23 10:42 51.31422 -1.08918 26175 ft 446 kts 154°
2026-04-23 10:42 51.28590 -1.06850 26509 ft 450 kts 154°
2026-04-23 10:43 51.25738 -1.04767 26907 ft 452 kts 154°
2026-04-23 10:43 51.22864 -1.02669 27260 ft 456 kts 154°
2026-04-23 10:43 51.19968 -1.00559 27643 ft 459 kts 154°
2026-04-23 10:43 51.17059 -0.98442 27991 ft 461 kts 154°
2026-04-23 10:44 51.14127 -0.96311 28336 ft 465 kts 154°
2026-04-23 10:44 51.11178 -0.94169 28714 ft 467 kts 154°
2026-04-23 10:44 51.08206 -0.92015 29026 ft 471 kts 154°
2026-04-23 10:44 51.05212 -0.89848 29347 ft 474 kts 154°
2026-04-23 10:45 51.02202 -0.87673 29663 ft 477 kts 154°
2026-04-23 10:45 50.99171 -0.85485 29966 ft 480 kts 154°
2026-04-23 10:45 50.96123 -0.83289 30284 ft 483 kts 154°
2026-04-23 10:45 50.93053 -0.81080 30564 ft 486 kts 154°
2026-04-23 10:46 50.89972 -0.78866 30849 ft 487 kts 154°
2026-04-23 10:46 50.86879 -0.76644 31152 ft 489 kts 154°
2026-04-23 10:46 50.83904 -0.74036 31368 ft 490 kts 144°
2026-04-23 10:46 50.81045 -0.71090 31651 ft 491 kts 146°
2026-04-23 10:47 50.78164 -0.68167 31953 ft 493 kts 145°
2026-04-23 10:47 50.75275 -0.65233 32271 ft 493 kts 145°
2026-04-23 10:47 50.72395 -0.62309 32688 ft 491 kts 145°
2026-04-23 10:47 50.69523 -0.59397 32939 ft 492 kts 145°
2026-04-23 10:48 50.63788 -0.53596 32924 ft 488 kts 146°
2026-04-23 10:48 50.58047 -0.47805 32916 ft 491 kts 146°
2026-04-23 10:49 50.52290 -0.42016 32914 ft 491 kts 146°
2026-04-23 10:49 50.46572 -0.36282 32922 ft 491 kts 146°
2026-04-23 10:50 50.40813 -0.30524 32909 ft 491 kts 146°
2026-04-23 10:50 50.35038 -0.24767 32915 ft 492 kts 146°
2026-04-23 10:51 50.29258 -0.19022 32902 ft 492 kts 146°
2026-04-23 10:51 50.23473 -0.13288 32901 ft 492 kts 146°
2026-04-23 10:52 50.17685 -0.07568 32892 ft 493 kts 146°
2026-04-23 10:52 50.11885 -0.01859 32892 ft 494 kts 148°
2026-04-23 10:53 50.08766 0.00361 32898 ft 493 kts 163°
2026-04-23 10:53 50.05452 0.01699 32894 ft 494 kts 165°
2026-04-23 10:53 49.98797 0.04412 32895 ft 494 kts 166°
2026-04-23 10:54 49.92126 0.07042 32880 ft 496 kts 166°
2026-04-23 10:54 49.85430 0.09667 32871 ft 496 kts 166°
2026-04-23 10:55 49.78732 0.12285 32866 ft 496 kts 166°
2026-04-23 10:55 49.72036 0.14894 32859 ft 497 kts 166°
2026-04-23 10:56 49.65343 0.17562 32865 ft 497 kts 166°
2026-04-23 10:56 49.58653 0.20257 32866 ft 497 kts 166°
2026-04-23 10:57 49.51963 0.22941 32851 ft 497 kts 166°
2026-04-23 10:57 49.45261 0.25621 32866 ft 498 kts 166°
2026-04-23 10:58 49.38558 0.28295 32868 ft 497 kts 166°
2026-04-23 10:58 49.31860 0.30968 32864 ft 498 kts 165°
2026-04-23 10:59 49.25188 0.33795 32860 ft 498 kts 165°
2026-04-23 10:59 49.18503 0.36607 32836 ft 498 kts 165°
2026-04-23 11:00 49.11816 0.39410 32835 ft 498 kts 165°
2026-04-23 11:00 49.05124 0.42206 32823 ft 499 kts 166°
2026-04-23 11:01 48.98428 0.44998 32850 ft 499 kts 165°
2026-04-23 11:01 48.91728 0.47782 32828 ft 499 kts 165°
2026-04-23 11:02 48.85027 0.50560 32822 ft 499 kts 165°
2026-04-23 11:02 48.78319 0.53301 32822 ft 499 kts 166°
2026-04-23 11:03 48.71597 0.55936 32819 ft 499 kts 166°
2026-04-23 11:03 48.64877 0.58577 32798 ft 499 kts 167°
2026-04-23 11:04 48.58153 0.61212 32811 ft 499 kts 166°
2026-04-23 11:04 48.51436 0.63868 32806 ft 499 kts 166°
2026-04-23 11:05 48.44730 0.66600 32800 ft 499 kts 166°
2026-04-23 11:05 48.38019 0.69317 32798 ft 500 kts 166°
2026-04-23 11:06 48.27940 0.73382 32793 ft 500 kts 166°
2026-04-23 11:07 48.21216 0.76044 32777 ft 500 kts 167°
2026-04-23 11:07 48.14473 0.78700 32789 ft 501 kts 167°
2026-04-23 11:08 48.07723 0.81352 32782 ft 501 kts 167°
2026-04-23 11:08 48.00981 0.83993 32783 ft 501 kts 167°
2026-04-23 11:09 47.94227 0.86632 32780 ft 502 kts 167°
2026-04-23 11:09 47.87478 0.89263 32774 ft 501 kts 167°
2026-04-23 11:10 47.80729 0.91883 32781 ft 501 kts 167°
2026-04-23 11:10 47.75110 0.94060 32772 ft 503 kts 167°
2026-04-23 11:11 47.68338 0.96676 32774 ft 503 kts 167°
2026-04-23 11:11 47.61568 0.99284 32766 ft 503 kts 167°
2026-04-23 11:12 47.53647 1.02327 32767 ft 503 kts 167°
2026-04-23 11:12 47.48014 1.04486 32766 ft 503 kts 167°
2026-04-23 11:13 47.41185 1.06347 32751 ft 495 kts 184°
2026-04-23 11:13 47.34283 1.06218 32742 ft 496 kts 184°
2026-04-23 11:14 47.27377 1.06078 32754 ft 496 kts 184°
2026-04-23 11:14 47.20479 1.05917 32751 ft 496 kts 184°
2026-04-23 11:15 47.13541 1.05755 32745 ft 495 kts 185°
2026-04-23 11:15 47.06666 1.05595 32744 ft 494 kts 185°
2026-04-23 11:16 46.99795 1.05354 32740 ft 494 kts 185°
2026-04-23 11:16 46.92934 1.05059 32732 ft 492 kts 185°
2026-04-23 11:17 46.86086 1.04771 32732 ft 492 kts 185°
2026-04-23 11:17 46.79241 1.04484 32730 ft 492 kts 185°
2026-04-23 11:18 46.72397 1.04198 32727 ft 492 kts 185°
2026-04-23 11:18 46.65553 1.03913 32727 ft 492 kts 185°
2026-04-23 11:19 46.58710 1.03629 32718 ft 492 kts 185°
2026-04-23 11:19 46.51924 1.03368 32714 ft 490 kts 184°
2026-04-23 11:20 46.45061 1.03307 32709 ft 490 kts 184°
2026-04-23 11:20 46.38294 1.03228 32708 ft 490 kts 184°
2026-04-23 11:21 46.31484 1.03147 32705 ft 489 kts 184°
2026-04-23 11:21 46.24681 1.03066 32698 ft 489 kts 184°
2026-04-23 11:22 46.17881 1.02985 32699 ft 489 kts 184°
2026-04-23 11:22 46.11088 1.02904 32702 ft 488 kts 184°
2026-04-23 11:23 46.04305 1.02824 32707 ft 488 kts 184°
2026-04-23 11:23 45.97516 1.02744 32698 ft 488 kts 184°
2026-04-23 11:24 45.90745 1.02664 32699 ft 486 kts 184°
2026-04-23 11:24 45.83938 1.02584 32704 ft 486 kts 184°
2026-04-23 11:24 45.80550 1.02790 32685 ft 490 kts 173°
2026-04-23 11:25 45.77202 1.03705 32709 ft 491 kts 172°
2026-04-23 11:25 45.70485 1.05422 32699 ft 490 kts 173°
2026-04-23 11:26 45.63768 1.07146 32692 ft 490 kts 173°
2026-04-23 11:26 45.57060 1.08864 32672 ft 490 kts 172°
2026-04-23 11:27 45.50357 1.10578 32693 ft 489 kts 173°
2026-04-23 11:27 45.43706 1.12274 32686 ft 489 kts 173°
2026-04-23 11:28 45.37007 1.13979 32684 ft 489 kts 173°
2026-04-23 11:28 45.30273 1.15687 32690 ft 488 kts 173°
2026-04-23 11:29 45.23567 1.17385 32691 ft 491 kts 173°
2026-04-23 11:29 45.16824 1.18934 32673 ft 487 kts 181°
2026-04-23 11:29 45.13489 1.18561 32698 ft 478 kts 194°
2026-04-23 11:30 45.10204 1.17767 32682 ft 480 kts 193°
2026-04-23 11:30 45.03623 1.16149 32697 ft 480 kts 194°
2026-04-23 11:31 44.97057 1.14473 32656 ft 479 kts 194°
2026-04-23 11:31 44.90528 1.12805 32678 ft 475 kts 194°
2026-04-23 11:32 44.84020 1.11145 32672 ft 475 kts 194°
2026-04-23 11:32 44.77511 1.09489 32676 ft 476 kts 194°
2026-04-23 11:33 44.70998 1.07835 32673 ft 476 kts 194°
2026-04-23 11:33 44.64484 1.06185 32662 ft 476 kts 194°
2026-04-23 11:34 44.57977 1.04540 32770 ft 474 kts 194°
2026-04-23 11:34 44.54730 1.03721 32959 ft 474 kts 194°
2026-04-23 11:34 44.51483 1.02903 33119 ft 475 kts 194°
2026-04-23 11:35 44.44989 1.01269 33141 ft 473 kts 194°
2026-04-23 11:35 44.38511 0.99643 33136 ft 472 kts 194°
2026-04-23 11:36 44.32044 0.98023 33145 ft 472 kts 194°
2026-04-23 11:36 44.25576 0.96407 33143 ft 472 kts 194°
2026-04-23 11:37 44.19111 0.94795 33138 ft 472 kts 194°
2026-04-23 11:37 44.12643 0.93186 33132 ft 472 kts 194°
2026-04-23 11:38 44.06179 0.91582 33127 ft 472 kts 194°
2026-04-23 11:38 43.99719 0.89981 33120 ft 472 kts 194°
2026-04-23 11:39 43.93255 0.88383 33128 ft 472 kts 194°
2026-04-23 11:39 43.86807 0.86723 33126 ft 471 kts 195°
2026-04-23 11:40 43.80369 0.84992 33118 ft 471 kts 195°
2026-04-23 11:40 43.73930 0.83272 33127 ft 471 kts 195°
2026-04-23 11:41 43.67444 0.81544 33122 ft 471 kts 195°
2026-04-23 11:41 43.61005 0.79831 33115 ft 471 kts 195°
2026-04-23 11:42 43.54561 0.78121 33119 ft 471 kts 195°
2026-04-23 11:42 43.48121 0.76417 33110 ft 471 kts 195°
2026-04-23 11:43 43.41700 0.74721 33089 ft 468 kts 195°
2026-04-23 11:43 43.35309 0.73036 33100 ft 468 kts 195°
2026-04-23 11:44 43.28911 0.71354 33100 ft 468 kts 195°
2026-04-23 11:44 43.22519 0.69676 33091 ft 468 kts 195°
2026-04-23 11:45 43.16130 0.68003 33100 ft 468 kts 195°
2026-04-23 11:45 43.09737 0.66331 33103 ft 467 kts 195°
2026-04-23 11:46 43.03349 0.64666 33101 ft 468 kts 195°
2026-04-23 11:46 42.96961 0.63003 33120 ft 468 kts 195°
2026-04-23 11:47 42.90579 0.61345 33125 ft 467 kts 194°
2026-04-23 11:47 42.85269 0.59970 33131 ft 467 kts 194°
2026-04-23 11:48 42.77807 0.58036 33064 ft 466 kts 194°
2026-04-23 11:48 42.72505 0.56670 33161 ft 468 kts 194°
2026-04-23 11:49 42.66436 0.53912 33160 ft 458 kts 209°
2026-04-23 11:49 42.60639 0.50276 33141 ft 459 kts 209°
2026-04-23 11:50 42.54847 0.46583 33171 ft 460 kts 209°
2026-04-23 11:50 42.49068 0.42895 33177 ft 459 kts 209°
2026-04-23 11:51 42.43290 0.39213 33191 ft 459 kts 209°
2026-04-23 11:51 42.37516 0.35542 33180 ft 458 kts 209°
2026-04-23 11:52 42.31741 0.31878 33166 ft 458 kts 209°
2026-04-23 11:52 42.25969 0.28223 33166 ft 459 kts 209°
2026-04-23 11:53 42.20193 0.24572 33162 ft 458 kts 209°
2026-04-23 11:53 42.14416 0.20929 33162 ft 459 kts 209°
2026-04-23 11:54 42.08632 0.17288 33168 ft 459 kts 209°
2026-04-23 11:54 42.05621 0.15831 33135 ft 465 kts 195°
2026-04-23 11:54 42.02408 0.15258 33183 ft 468 kts 191°
2026-04-23 11:55 41.95938 0.14199 33157 ft 468 kts 190°
2026-04-23 11:55 41.89460 0.13216 33165 ft 468 kts 190°
2026-04-23 11:56 41.82940 0.12240 33161 ft 468 kts 190°
2026-04-23 11:56 41.76462 0.11274 33156 ft 468 kts 189°
2026-04-23 11:57 41.69989 0.10310 33159 ft 468 kts 190°
2026-04-23 11:57 41.63521 0.09349 33164 ft 468 kts 189°
2026-04-23 11:58 41.57050 0.08389 33172 ft 467 kts 189°
2026-04-23 11:58 41.50586 0.07432 33159 ft 467 kts 189°
2026-04-23 11:59 41.44122 0.06477 33169 ft 467 kts 189°
2026-04-23 11:59 41.37656 0.05524 33169 ft 467 kts 189°
2026-04-23 12:00 41.31196 0.04574 33152 ft 467 kts 189°
2026-04-23 12:00 41.24745 0.03627 33156 ft 467 kts 189°
2026-04-23 12:01 41.18293 0.02682 33158 ft 467 kts 189°
2026-04-23 12:01 41.11839 0.01737 33150 ft 467 kts 189°
2026-04-23 12:02 41.05391 0.00795 33160 ft 466 kts 189°
2026-04-23 12:02 40.98947 -0.00145 33158 ft 466 kts 189°
2026-04-23 12:03 40.92508 -0.01083 33145 ft 464 kts 189°
2026-04-23 12:03 40.86107 -0.02013 33145 ft 462 kts 189°
2026-04-23 12:04 40.79720 -0.02940 33148 ft 462 kts 189°
2026-04-23 12:04 40.73337 -0.03864 33163 ft 461 kts 189°
2026-04-23 12:05 40.66953 -0.04786 33154 ft 461 kts 189°
2026-04-23 12:05 40.60568 -0.05707 33154 ft 462 kts 189°
2026-04-23 12:06 40.54245 -0.06994 33138 ft 456 kts 201°
2026-04-23 12:06 40.45120 -0.10630 33111 ft 457 kts 200°
2026-04-23 12:07 40.39039 -0.13036 33093 ft 456 kts 200°
2026-04-23 12:07 40.32959 -0.15437 33080 ft 456 kts 200°
2026-04-23 12:08 40.26878 -0.17835 33081 ft 456 kts 200°
2026-04-23 12:08 40.20798 -0.20226 33094 ft 456 kts 199°
2026-04-23 12:09 40.14730 -0.22610 33114 ft 456 kts 199°
2026-04-23 12:09 40.08653 -0.24991 33139 ft 456 kts 199°
2026-04-23 12:10 40.02581 -0.27367 33175 ft 456 kts 199°
2026-04-23 12:10 39.96509 -0.29737 33180 ft 455 kts 199°
2026-04-23 12:11 39.90441 -0.32100 33173 ft 455 kts 199°
2026-04-23 12:11 39.84370 -0.34462 33169 ft 455 kts 199°
2026-04-23 12:12 39.78305 -0.36818 33159 ft 455 kts 199°
2026-04-23 12:12 39.72241 -0.39168 33158 ft 455 kts 200°
2026-04-23 12:13 39.66177 -0.41515 33156 ft 455 kts 199°
2026-04-23 12:13 39.60114 -0.43857 33156 ft 455 kts 199°
2026-04-23 12:14 39.54051 -0.46194 33157 ft 455 kts 199°
2026-04-23 12:14 39.47938 -0.48307 33139 ft 458 kts 188°
2026-04-23 12:15 39.41569 -0.48791 33146 ft 459 kts 186°
2026-04-23 12:15 39.35142 -0.49278 33172 ft 459 kts 186°
2026-04-23 12:16 39.28765 -0.49742 33164 ft 459 kts 186°
2026-04-23 12:16 39.22390 -0.50203 33167 ft 459 kts 186°
2026-04-23 12:17 39.15970 -0.50666 33164 ft 459 kts 186°
2026-04-23 12:17 39.09593 -0.51125 33123 ft 459 kts 185°
2026-04-23 12:18 39.03221 -0.51583 33103 ft 459 kts 186°
2026-04-23 12:18 38.96838 -0.51804 33077 ft 460 kts 183°
2026-04-23 12:19 38.90437 -0.51876 33042 ft 460 kts 183°
2026-04-23 12:19 38.84046 -0.51943 33028 ft 459 kts 183°
2026-04-23 12:20 38.77667 -0.52011 33025 ft 459 kts 183°
2026-04-23 12:20 38.71280 -0.52078 33033 ft 459 kts 182°
2026-04-23 12:21 38.64893 -0.52144 33079 ft 459 kts 183°
2026-04-23 12:21 38.58512 -0.52211 33087 ft 459 kts 183°
2026-04-23 12:22 38.53206 -0.52267 33082 ft 459 kts 183°
2026-04-23 12:22 38.46267 -0.52340 32872 ft 456 kts 183°
2026-04-23 12:23 38.43141 -0.52372 32146 ft 455 kts 182°
2026-04-23 12:23 38.39986 -0.52404 31543 ft 452 kts 183°
2026-04-23 12:23 38.36816 -0.52438 30991 ft 448 kts 183°
2026-04-23 12:23 38.33710 -0.52470 30438 ft 445 kts 182°
2026-04-23 12:24 38.30620 -0.52502 29834 ft 443 kts 182°
2026-04-23 12:24 38.27548 -0.52534 29201 ft 440 kts 182°
2026-04-23 12:24 38.24497 -0.52565 28647 ft 436 kts 183°
2026-04-23 12:24 38.21474 -0.52598 28098 ft 433 kts 182°
2026-04-23 12:25 38.18474 -0.52628 27554 ft 430 kts 183°
2026-04-23 12:25 38.15496 -0.52659 27013 ft 427 kts 183°
2026-04-23 12:25 38.12533 -0.52689 26475 ft 424 kts 183°
2026-04-23 12:25 38.09595 -0.52720 25953 ft 421 kts 182°
2026-04-23 12:26 38.06670 -0.52751 25418 ft 419 kts 184°
2026-04-23 12:26 38.03757 -0.52780 24892 ft 417 kts 182°
2026-04-23 12:26 38.00860 -0.52809 24370 ft 416 kts 183°
2026-04-23 12:26 37.97974 -0.52839 23851 ft 414 kts 184°
2026-04-23 12:27 37.95093 -0.52868 23271 ft 413 kts 182°
2026-04-23 12:27 37.92228 -0.52899 22726 ft 410 kts 184°
2026-04-23 12:27 37.89390 -0.52928 22224 ft 406 kts 182°
2026-04-23 12:27 37.86575 -0.52955 21740 ft 402 kts 183°
2026-04-23 12:28 37.83792 -0.52984 21273 ft 398 kts 184°
2026-04-23 12:28 37.81031 -0.53014 20797 ft 395 kts 182°
2026-04-23 12:28 37.78294 -0.53042 20335 ft 391 kts 183°
2026-04-23 12:28 37.75584 -0.53070 19885 ft 388 kts 182°
2026-04-23 12:29 37.72930 -0.53095 19438 ft 385 kts 182°
2026-04-23 12:29 37.70259 -0.53121 19000 ft 382 kts 184°
2026-04-23 12:29 37.67578 -0.53150 18570 ft 378 kts 184°
2026-04-23 12:29 37.64958 -0.53178 18114 ft 375 kts 184°
2026-04-23 12:30 37.62393 -0.53204 17662 ft 372 kts 182°
2026-04-23 12:30 37.59788 -0.53229 17229 ft 368 kts 184°
2026-04-23 12:30 37.57246 -0.53256 16810 ft 363 kts 183°
2026-04-23 12:30 37.54729 -0.53281 16406 ft 359 kts 184°
2026-04-23 12:31 37.52246 -0.53307 15950 ft 357 kts 182°
2026-04-23 12:31 37.49775 -0.53345 15556 ft 352 kts 186°
2026-04-23 12:31 37.47452 -0.54118 15145 ft 343 kts 210°
2026-04-23 12:31 37.45627 -0.55982 14800 ft 337 kts 229°
2026-04-23 12:32 37.44319 -0.58389 14448 ft 332 kts 243°
2026-04-23 12:32 37.43324 -0.60996 14079 ft 329 kts 244°
2026-04-23 12:32 37.42399 -0.63576 13695 ft 327 kts 247°
2026-04-23 12:32 37.41597 -0.66290 13287 ft 327 kts 251°
2026-04-23 12:33 37.40955 -0.69047 12914 ft 329 kts 254°
2026-04-23 12:33 37.40455 -0.71850 12537 ft 328 kts 257°
2026-04-23 12:33 37.40081 -0.74676 12156 ft 326 kts 260°
2026-04-23 12:33 37.39842 -0.77520 11581 ft 330 kts 264°
2026-04-23 12:34 37.39729 -0.80399 11046 ft 326 kts 266°
2026-04-23 12:34 37.39774 -0.83179 10752 ft 310 kts 270°
2026-04-23 12:34 37.39920 -0.85808 10590 ft 292 kts 272°
2026-04-23 12:34 37.40185 -0.88258 10466 ft 274 kts 275°
2026-04-23 12:35 37.40523 -0.90550 10323 ft 259 kts 277°
2026-04-23 12:35 37.40903 -0.92709 10189 ft 249 kts 279°
2026-04-23 12:35 37.41351 -0.94866 10084 ft 263 kts 281°
2026-04-23 12:35 37.42045 -0.97043 9770 ft 275 kts 296°
2026-04-23 12:36 37.43296 -0.98911 9403 ft 284 kts 313°
2026-04-23 12:36 37.44720 -1.00645 9056 ft 285 kts 310°
2026-04-23 12:36 37.46108 -1.02439 8765 ft 286 kts 307°
2026-04-23 12:36 37.47369 -1.04363 8476 ft 285 kts 303°
2026-04-23 12:37 37.48482 -1.06424 8187 ft 284 kts 299°
2026-04-23 12:37 37.49479 -1.08564 7872 ft 283 kts 294°
2026-04-23 12:37 37.50359 -1.10765 7570 ft 281 kts 290°
2026-04-23 12:37 37.51112 -1.13061 7244 ft 279 kts 287°
2026-04-23 12:38 37.51725 -1.15369 6951 ft 277 kts 282°
2026-04-23 12:38 37.52223 -1.17711 6626 ft 276 kts 278°
2026-04-23 12:38 37.52609 -1.20084 6282 ft 278 kts 278°
2026-04-23 12:38 37.53073 -1.22455 5948 ft 279 kts 283°
2026-04-23 12:39 37.53673 -1.24779 5662 ft 279 kts 288°
2026-04-23 12:39 37.54404 -1.27049 5340 ft 280 kts 292°
2026-04-23 12:39 37.55259 -1.29257 5059 ft 279 kts 297°
2026-04-23 12:39 37.56218 -1.31355 4884 ft 274 kts 302°
2026-04-23 12:40 37.57266 -1.33327 4759 ft 268 kts 307°
2026-04-23 12:40 37.58025 -1.34587 4633 ft 266 kts 310°
2026-04-23 12:40 37.59222 -1.36330 4487 ft 258 kts 321°
2026-04-23 12:40 37.60748 -1.37317 4478 ft 232 kts 352°
2026-04-23 12:41 37.62301 -1.37231 4123 ft 219 kts 22°
2026-04-23 12:41 37.63537 -1.36278 3940 ft 202 kts 46°
2026-04-23 12:41 37.64519 -1.35088 3748 ft 191 kts 50°
2026-04-23 12:41 37.65408 -1.33893 3531 ft 183 kts 50°
2026-04-23 12:42 37.66244 -1.32728 3319 ft 176 kts 51°
2026-04-23 12:42 37.67048 -1.31582 3046 ft 170 kts 51°
2026-04-23 12:42 37.67792 -1.30508 2929 ft 147 kts 52°
2026-04-23 12:42 37.68423 -1.29583 2881 ft 135 kts 51°
2026-04-23 12:43 37.69017 -1.28702 2970 ft 130 kts 52°
2026-04-23 12:43 37.69599 -1.27840 3000 ft 129 kts 53°
2026-04-23 12:43 37.70177 -1.26980 2959 ft 129 kts 53°
2026-04-23 12:43 37.70763 -1.26108 2924 ft 125 kts 52°
2026-04-23 12:44 37.71364 -1.25275 2774 ft 131 kts 50°
2026-04-23 12:44 37.71989 -1.24447 2623 ft 131 kts 50°
2026-04-23 12:44 37.72619 -1.23608 2512 ft 131 kts 50°
2026-04-23 12:44 37.73244 -1.22763 2402 ft 132 kts 51°
2026-04-23 12:45 37.73851 -1.21899 2298 ft 130 kts 52°
2026-04-23 12:45 37.74417 -1.21018 2190 ft 129 kts 56°
2026-04-23 12:45 37.74957 -1.20067 2100 ft 135 kts 58°
2026-04-23 12:45 37.75489 -1.19110 1924 ft 132 kts 57°
2026-04-23 12:46 37.76042 -1.18203 1706 ft 127 kts 54°
2026-04-23 12:46 37.76607 -1.17355 1483 ft 123 kts 52°
2026-04-23 12:46 37.77216 -1.16475 1370 ft 135 kts 53°
2026-04-23 12:46 37.77850 -1.15614 1169 ft 132 kts 52°
2026-04-23 12:47 37.78500 -1.14801 908 ft 132 kts 48°
2026-04-23 12:47 37.79149 -1.13979 745 ft 128 kts 50°
2026-04-23 12:47 37.79743 -1.13211 661 ft 111 kts 53°
2026-04-23 12:47 37.80184 -1.12638 647 ft 61 kts 46°
2026-04-23 12:48 37.80427 -1.12323 650 ft 50 kts 46°
2026-04-23 12:48 37.80659 -1.12023 648 ft 46 kts 44°
2026-04-23 12:48 37.80883 -1.11735 646 ft 41 kts 45°
2026-04-23 12:48 37.81071 -1.11500 650 ft 34 kts 47°
2026-04-23 12:49 37.81219 -1.11314 650 ft 25 kts 31°
2026-04-23 12:49 37.81330 -1.11382 654 ft 18 kts 306°
2026-04-23 12:49 37.81311 -1.11500 656 ft 15 kts 230°
2026-04-23 12:49 37.81217 -1.11623 655 ft 25 kts 224°
2026-04-23 12:50 37.81076 -1.11801 652 ft 30 kts 225°
2026-04-23 12:50 37.80920 -1.12003 649 ft 33 kts 225°
2026-04-23 12:50 37.80754 -1.12214 650 ft 35 kts 225°
2026-04-23 12:50 37.80587 -1.12435 653 ft 36 kts 223°
2026-04-23 12:51 37.80424 -1.12637 651 ft 31 kts 224°
2026-04-23 12:51 37.80456 -1.12802 649 ft 15 kts 294°
2026-04-23 12:51 37.80428 -1.12888 649 ft 14 kts 223°
2026-04-23 12:51 37.80426 -1.12935 649 ft 3 kts 318°
2026-04-23 12:52 37.80437 -1.12949 649 ft 1 kts 314°
2026-04-23 12:52 37.80441 -1.12954 651 ft 3 kts 315°
2026-04-23 12:52 37.80458 -1.12975 649 ft 0 kts 316°